DW1274 Weather Reports


Display with metric or nautical units.
time (UTC)temp
F
wind
direction
speed
MPH
gust
MPH
rain 1hr
in
rain 24hr
in
rain mn
in
humidity
%
barometer
mb
20260504070306 52 0 0.0 0.0 0.00 0.03 0.00 98 1016.5
20260504045301 54 0 0.0 1.0 0.00 0.03 0.00 95 1017.5
20260504044801 54 0 0.0 1.0 0.00 0.03 0.00 95 1017.5
20260504044306 55 250 0.0 1.0 0.00 0.03 0.00 94 1017.5
20260504043802 55 0 0.0 1.0 0.00 0.03 0.00 94 1017.4
20260504042802 55 0 0.0 2.0 0.00 0.03 0.00 94 1017.4
20260504042304 56 0 0.0 2.0 0.00 0.03 0.00 93 1017.3
20260504041300 55 0 0.0 3.0 0.00 0.03 0.00 93 1017.3
20260504040802 0 0 0.0 0.0 0.00 0.03 0.00
20260504040301 0 0 0.0 0.0 0.00 0.03 0.00
20260504035802 0 0 0.0 0.0 0.00 0.03 0.03
20260504035301 0 0 0.0 0.0 0.00 0.03 0.03
20260504034802 0 0.0 0.0 0.00 0.03 0.03
20260504034302 0 0.0 0.0 0.00 0.03 0.03
20260504033301 0 0 0.0 0.0 0.00 0.03 0.03
20260504032802 58 0 0.0 0.0 0.00 0.03 0.03 90 1017.4
20260504032303 58 0 0.0 0.0 0.00 0.03 0.03 90 1017.4
20260504031802 58 0 0.0 0.0 0.00 0.03 0.03 90 1017.4
20260504031301 58 0 0.0 0.0 0.00 0.03 0.03 89 1017.5
20260504030801 59 0 0.0 1.0 0.00 0.03 0.03 89 1017.5
20260504030301 59 0 0.0 1.0 0.00 0.03 0.03 88 1017.5
20260504025802 59 0 0.0 0.0 0.00 0.03 0.03 87 1017.4
20260504025306 60 0 0.0 2.0 0.00 0.03 0.03 87 1017.5
20260504024802 60 0 0.0 2.0 0.00 0.03 0.03 86 1017.5
20260504024302 60 280 0.0 2.0 0.00 0.03 0.03 84 1017.4
20260504023301 61 0 0.0 1.0 0.00 0.03 0.03 82 1017.3
20260504022805 62 0 0.0 1.0 0.00 0.03 0.03 80 1017.3
20260504022301 63 0 0.0 0.0 0.00 0.03 0.03 79 1017.2
20260504021802 63 0 0.0 3.0 0.00 0.03 0.03 79 1017.2
20260504021301 63 0 0.0 3.0 0.00 0.03 0.03 79 1017.2
20260504020801 63 0 0.0 2.0 0.00 0.03 0.03 78 1017.0
20260504020306 64 0 0.0 2.0 0.00 0.03 0.03 77 1017.0
20260504015802 64 208 0.0 2.0 0.00 0.03 0.03 77 1016.8
20260504015302 64 0 0.0 2.0 0.00 0.03 0.03 76 1016.8
20260504014801 64 126 0.0 2.0 0.00 0.03 0.03 75 1016.7
20260504014301 64 0 0.0 4.0 0.00 0.03 0.03 74 1016.7
20260504013806 64 65 1.0 4.0 0.00 0.03 0.03 73 1016.6
20260504013302 64 72 1.0 4.0 0.00 0.03 0.03 73 1016.6
20260504012802 65 0 0.0 2.0 0.00 0.03 0.03 72 1016.5
20260504012304 65 76 0.0 2.0 0.00 0.03 0.03 70 1016.5
20260504011802 65 0 0.0 1.0 0.00 0.03 0.03 69 1016.3
20260504011302 65 0 0.0 1.0 0.00 0.03 0.03 68 1016.2
20260504010802 65 56 0.0 2.0 0.00 0.03 0.03 67 1016.2
20260504010302 66 0 1.0 3.0 0.00 0.03 0.03 66 1016.2
20260504005801 66 88 2.0 4.0 0.00 0.03 0.03 64 1016.2
20260504005304 66 87 2.0 5.0 0.00 0.03 0.03 63 1016.1
20260504004801 66 108 1.0 5.0 0.00 0.03 0.03 62 1016.1
20260504004300 66 126 1.0 4.0 0.00 0.03 0.03 60 1016.1
20260504003801 67 0 1.0 6.0 0.00 0.03 0.03 60 1016.0
20260504003301 67 0 1.0 6.0 0.00 0.03 0.03 59 1016.0
20260504002801 67 72 1.0 4.0 0.00 0.03 0.03 58 1015.9
20260504001800 68 148 1.0 4.0 0.00 0.03 0.03 56 1015.9
20260504001300 68 70 1.0 4.0 0.00 0.03 0.03 57 1015.9
20260504000801 68 50 2.0 7.0 0.00 0.03 0.03 56 1015.9
20260504000301 69 195 3.0 8.0 0.00 0.03 0.03 55 1015.8
20260503235800 69 126 4.0 8.0 0.00 0.03 0.03 55 1015.8
20260503235305 69 130 4.0 9.0 0.00 0.03 0.03 56 1015.8
20260503234801 69 147 4.0 9.0 0.00 0.03 0.03 57 1015.8
20260503234301 69 147 3.0 9.0 0.00 0.03 0.03 57 1015.8
20260503233801 69 115 3.0 7.0 0.00 0.03 0.03 58 1015.9
20260503233301 70 121 4.0 8.0 0.00 0.03 0.03 57 1015.9
20260503232301 70 122 4.0 8.0 0.00 0.03 0.03 57 1015.8
20260503231300 70 71 4.0 8.0 0.00 0.03 0.03 57 1015.9
20260503230802 70 69 4.0 8.0 0.00 0.03 0.03 56 1015.9
20260503230301 70 79 4.0 8.0 0.00 0.03 0.03 56 1015.8
20260503225801 71 137 4.0 9.0 0.00 0.03 0.03 56 1015.7
20260503225304 71 88 5.0 9.0 0.00 0.03 0.03 55 1015.7
20260503224800 71 99 4.0 10.0 0.00 0.03 0.03 56 1015.7
20260503224300 71 84 4.0 10.0 0.00 0.03 0.03 55 1015.7
20260503223801 71 89 3.0 9.0 0.00 0.03 0.03 55 1015.7
20260503223301 71 128 3.0 10.0 0.00 0.03 0.03 55 1015.8
20260503222801 71 66 4.0 10.0 0.00 0.03 0.03 54 1015.8
20260503222304 71 110 4.0 11.0 0.00 0.03 0.03 55 1015.7
20260503221301 71 90 6.0 11.0 0.00 0.03 0.03 54 1015.7
20260503220801 71 83 5.0 10.0 0.00 0.03 0.03 54 1015.6
20260503220301 72 197 4.0 9.0 0.00 0.03 0.03 54 1015.6
20260503215801 72 348 4.0 9.0 0.00 0.03 0.03 54 1015.6
20260503215304 72 134 4.0 9.0 0.00 0.03 0.03 53 1015.6
20260503214800 72 31 4.0 9.0 0.00 0.03 0.03 55 1015.7
20260503214300 72 357 4.0 8.0 0.00 0.03 0.03 53 1015.6
20260503213801 71 89 3.0 7.0 0.00 0.03 0.03 54 1015.6
20260503212802 72 31 4.0 9.0 0.00 0.03 0.03 54 1015.5
20260503212304 72 359 4.0 9.0 0.00 0.03 0.03 53 1015.5
20260503211801 72 19 5.0 9.0 0.00 0.03 0.03 53 1015.5
20260503211302 72 61 5.0 9.0 0.00 0.03 0.03 55 1015.5
20260503210801 71 76 5.0 10.0 0.00 0.03 0.03 55 1015.6
20260503210301 72 81 6.0 10.0 0.00 0.03 0.03 55 1015.6
20260503205800 72 97 4.0 10.0 0.00 0.03 0.03 54 1015.6
20260503205300 72 128 4.0 9.0 0.00 0.03 0.03 53 1015.7
20260503204759 72 30 4.0 9.0 0.00 0.03 0.03 53 1015.7
20260503204300 72 0 3.0 8.0 0.00 0.03 0.03 55 1015.8
20260503203300 71 169 7.0 11.0 0.00 0.03 0.03 55 1015.9
20260503202801 72 103 6.0 11.0 0.00 0.03 0.03 55 1015.9
20260503201801 72 34 5.0 11.0 0.00 0.03 0.03 55 1016.1
20260503201300 72 23 5.0 11.0 0.00 0.03 0.03 55 1016.1
20260503200801 71 291 5.0 11.0 0.00 0.03 0.03 55 1016.0
20260503200301 72 134 5.0 10.0 0.00 0.03 0.03 53 1016.0
20260503195758 72 126 5.0 9.0 0.00 0.03 0.03 56 1016.1
20260503195258 72 102 3.0 9.0 0.00 0.03 0.03 56 1016.2
20260503194758 71 17 2.0 8.0 0.00 0.03 0.03 56 1016.3
20260503194258 71 10 3.0 8.0 0.00 0.03 0.03 55 1016.4
20260503193757 71 69 4.0 9.0 0.00 0.03 0.03 55 1016.5
20260503192759 71 105 5.0 10.0 0.00 0.03 0.03 55 1016.6
20260503190759 72 97 6.0 11.0 0.00 0.03 0.03 54 1016.8
20260503190300 72 79 4.0 11.0 0.00 0.03 0.03 55 1017.0
20260503185800 72 145 3.0 7.0 0.00 0.03 0.03 54 1017.1
20260503185300 72 42 4.0 12.0 0.00 0.03 0.03 53 1017.1
20260503184755 72 38 5.0 12.0 0.00 0.03 0.03 53 1017.1
20260503184256 72 13 4.0 10.0 0.00 0.03 0.03 53 1017.2
20260503183756 71 278 3.0 10.0 0.00 0.03 0.03 52 1017.3
20260503183256 70 60 2.0 9.0 0.00 0.03 0.03 56 1017.3
20260503182756 71 110 3.0 9.0 0.00 0.03 0.03 57 1017.3
20260503182256 72 87 4.0 9.0 0.00 0.03 0.03 56 1017.4
20260503181756 73 118 4.0 9.0 0.00 0.03 0.03 53 1017.4
20260503181257 72 124 3.0 9.0 0.00 0.03 0.03 52 1017.4
20260503180258 71 97 5.0 11.0 0.00 0.03 0.03 57 1017.5
20260503175757 72 78 4.0 11.0 0.00 0.03 0.03 55 1017.5
20260503175257 71 22 2.0 8.0 0.00 0.03 0.03 53 1017.6
20260503174254 71 51 5.0 13.0 0.00 0.03 0.03 56 1017.7
20260503173254 73 100 3.0 9.0 0.00 0.03 0.03 53 1017.7
20260503172255 70 335 3.0 10.0 0.00 0.03 0.03 54 1017.8
20260503171755 71 128 3.0 11.0 0.00 0.03 0.03 55 1017.8
20260503171254 71 351 4.0 13.0 0.00 0.03 0.03 59 1018.0
20260503170255 71 320 5.0 10.0 0.00 0.03 0.03 54 1018.1
20260503150246 65 16 4.0 9.0 0.00 0.22 0.03 79 1018.6
20260503140240 58 4 5.0 9.0 0.00 0.69 0.03 93 1018.3
20260503130741 56 19 5.0 10.0 0.03 0.74 0.03 99 1018.1
20260503130241 56 329 4.0 10.0 0.03 0.74 0.03 99 1018.1
20260503110731 53 0 0.0 0.0 0.00 0.71 0.00 99 1016.9
20260503110229 52 0 0.0 0.0 0.00 0.71 0.00 99 1016.7
20260503100226 54 0 0.0 1.0 0.00 0.71 0.00 99 1015.8
20260503090210 56 0 0.0 2.0 0.00 0.71 0.00 100 1015.3
20260503080201 56 325 4.0 7.0 0.00 0.71 0.00 100 1015.4